Погода в Яблоново

Россия / Забайкальский край     51°50′30″N   112°45′31″E
темп.,
°C
ветер,
м/с
пор.,
м/с
влажн.,
%
обл.,
%
осадки,
мм/ч
давл.,
гПа
погр.,
м
25 января, пн
пн2500:00−14в41096100 0.7 1028529
03:00−15в5996100 2.4 1026507
06:00−16в4896100 1.4 1024497
09:00−17св3797100 2.6 1023452
12:00−17св3694100 0.7 1022493
15:00−17ссв3589100 1.1 1020717
18:00−18ссз2597100 0.4 1021247
21:00−20сз3797100 0.6 1022320
26 января, вт
вт2600:00−22сз41092100 0.1 1023654
03:00−24сз31393100 0.1 1023533
06:00−24сз31094100 0.0 1023327
09:00−21сз51193100 0.1 1023650
12:00−21зсз5988100 0.1 1023544
15:00−20зсз71184100 0.1 1022684
18:00−21зсз71385100 0.0 1023647
21:00−23зсз71483100 0.0 1026594
27 января, ср
ср2700:00−25зсз6138599 0.0 1028497
03:00−26зсз5118999 0.0 1029389
06:00−28зсз41190100 0.0 1030350
09:00−29зсз31092100 0.0 1032337
12:00−27зсз4987100 0.0 1031438
15:00−24зсз5886100 0.0 1030574
18:00−26зсз51087100 0.0 1031518
21:00−28зсз41190100 0.0 1033410
28 января, чт
чт2800:00−29зсз41090100 0.0 1035337
03:00−32зсз339498 0.0 103681
06:00−35з229524 0.0 103728
09:00−36з229513 0.0 103823
12:00−31з24850 0.0 1036310
15:00−27зсз358224 0.0 1032502
18:00−30з229378 0.0 103219
21:00−32зсз229358 0.0 103419
29 января, пт
пт2900:00−33з229010 0.0 103319
03:00−33зсз229219 0.0 103319
06:00−33зсз129781 0.0 103119
09:00−32з119878 0.0 103019
12:00−25ю119090 0.0 1026183
15:00−20ююз138895 0.1 1022367
18:00−23юв11100100 0.0 102122
21:00−22ююв11100100 0.1 102127